Location: Recife
(8.0585°S, 34.8848°W)
Time: 02:06:20
(UTC-03:00)

Vanguard 3 - Pass Details

Date: 16 April 2026
Orbit: 507 x 3205 km, 33.4° (Epoch: 15 May)

Event Time Altitude Azimuth Distance (km) Brightness Sun altitude
Rises 18:14:25 0° 244° (WSW) 6,384 12.7 -14.9°
Reaches altitude 10° 18:19:28 10° 248° (WSW) 4,971 12.1 -16.1°
Maximum altitude 18:31:40 47° 317° (NW) 1,973 9.4 -19.1°
Drops below altitude 10° 18:38:42 10° 29° (NNE) 2,912 9.8 -20.9°
Enters shadow 18:40:00 - 34° (NNE) 3,302 10.0 -21.2°
